Bowling Green, KY

2:46 AM CST on February 14, 2016 (GMT -0600)
Bowling Green-Warren County Regional

Weather History for KBWG - May, 2014

Change the Weather History Date:

Saturday, May 31, 2014

  Actual Average Record
Temperature  
Mean Temperature 77 °F 71 °F  
Max Temperature 87 °F 82 °F 97 °F (1918)
Min Temperature 67 °F 60 °F 42 °F (1894)
Degree Days  
Heating Degree Days 0 1  
Month to date heating degree days 76 74  
Since 1 July heating degree days 4533 4043  
Cooling Degree Days 12 7  
Month to date cooling degree days 183 117  
Year to date cooling degree days 197 153  
Growing Degree Days 28 (Base 50)    
Moisture  
Dew Point 64 °F    
Average Humidity 71    
Maximum Humidity 97    
Minimum Humidity 45    
Precipitation  
Precipitation 0.00 in 0.17 in 3.78 in (1893)
Month to date precipitation 3.11 5.61  
Year to date precipitation 20.58 21.93  
Snow  
Snow 0.00 in 0.00 in 0.00 in ()
Month to date snowfall 0.0 0.0  
Since 1 July snowfall 10.4 9.1  
Snow Depth 0.00 in    
Sea Level Pressure  
Sea Level Pressure 30.08 in    
Wind  
Wind Speed 5 mph (ENE)    
Max Wind Speed 14 mph    
Max Gust Speed 18 mph    
Visibility 8 miles    
Events      
T = Trace of Precipitation, MM = Missing Value Source: NWS Daily Summary

Daily Weather History Graph

Daily Weather History Graph

Search for Another Location

Airport or City:

Trip Planner

Search our weather history database for the weather conditions in past years. The results will help you decide how hot, cold, wet, or windy it might be!

Date:

Astronomy

May. 31, 2014 Rise Set
Actual Time 5:28 AM CDT 7:59 PM CDT
Civil Twilight 4:57 AM CDT 8:29 PM CDT
Nautical Twilight 4:20 AM CDT 9:06 PM CDT
Astronomical Twilight 3:39 AM CDT 9:48 PM CDT
Moon 8:02 AM CDT (5/31) 10:19 PM CDT (5/31)
Length of Visible Light 15h 31m
Length of Day
14h 30m
Waxing Crescent, 8% of the Moon is Illuminated
May 31
Waxing Crescent
Jun 5
First Quarter
Jun 12
Full
Jun 19
Last Quarter
Jun 27
New

Hourly Weather History & Observations

Time (CDT) Temp. Heat Index Dew Point Humidity Pressure Visibility Wind Dir Wind Speed Gust Speed Precip Events Conditions
12:53 AM 71.1 °F - 68.0 °F 90% 30.07 in 10.0 mi Calm Calm - N/A   Clear
1:53 AM 70.0 °F - 68.0 °F 93% 30.07 in 10.0 mi Calm Calm - N/A   Clear
2:53 AM 70.0 °F - 66.9 °F 90% 30.07 in 9.0 mi Calm Calm - N/A   Scattered Clouds
4:53 AM 68.0 °F - 64.9 °F 90% 30.09 in 5.0 mi Calm Calm - N/A   Clear
5:33 AM 68.0 °F - 66.0 °F 93% 30.11 in 2.5 mi Calm Calm - N/A   Clear
5:53 AM 68.0 °F - 66.9 °F 96% 30.10 in 2.0 mi Calm Calm - N/A   Clear
6:14 AM 69.1 °F - 68.0 °F 96% 30.12 in 3.0 mi Calm Calm - N/A   Clear
6:53 AM 72.0 °F - 68.0 °F 87% 30.11 in 6.0 mi NE 6.9 mph - N/A   Clear
7:53 AM 75.9 °F - 69.1 °F 79% 30.11 in 9.0 mi East 4.6 mph - N/A   Clear
8:53 AM 79.0 °F - 69.1 °F 72% 30.12 in 10.0 mi ENE 6.9 mph - N/A   Clear
10:53 AM 82.9 °F 87.0 °F 70.0 °F 65% 30.11 in 10.0 mi East 9.2 mph - N/A   Clear
11:53 AM 84.9 °F 88.2 °F 68.0 °F 57% 30.09 in 10.0 mi NE 6.9 mph 17.3 mph N/A   Partly Cloudy
12:53 PM 84.9 °F 87.1 °F 66.0 °F 53% 30.09 in 10.0 mi NE 6.9 mph - N/A   Clear
1:53 PM 87.1 °F 88.9 °F 64.9 °F 48% 30.06 in 10.0 mi NE 9.2 mph - N/A   Clear
2:53 PM 87.1 °F 88.9 °F 64.9 °F 48% 30.04 in 10.0 mi East 10.4 mph - N/A   Clear
3:53 PM 87.1 °F 88.9 °F 64.9 °F 48% 30.03 in 10.0 mi NE 9.2 mph - N/A   Partly Cloudy
4:53 PM 84.0 °F 85.4 °F 64.0 °F 51% 30.04 in 10.0 mi ENE 11.5 mph - N/A   Clear
6:53 PM 80.1 °F 80.6 °F 57.9 °F 47% 30.03 in 10.0 mi ENE 6.9 mph - N/A   Clear
7:53 PM 77.0 °F - 57.0 °F 50% 30.04 in 10.0 mi NE 5.8 mph - N/A   Clear
8:53 PM 73.0 °F - 57.9 °F 59% 30.05 in 10.0 mi NE 5.8 mph - N/A   Clear
9:53 PM 72.0 °F - 57.9 °F 61% 30.06 in 10.0 mi NE 3.5 mph - N/A   Clear
10:53 PM 72.0 °F - 57.0 °F 59% 30.07 in 10.0 mi Calm Calm - N/A   Clear
11:53 PM 69.1 °F - 57.9 °F 68% 30.08 in 10.0 mi Calm Calm - N/A   Clear